| time (UTC) | temp F | wind direction | speed knots | gust knots | rain 1hr in | rain 24hr in | rain mn in | humidity % | barometer mb |
| 20260505124552 | 53 | 0 | 0.0 | 0.0 | 0.00 | 0.00 | 0.00 | 89 | 1015.0 |
| 20260505123049 | 53 | 0 | 0.0 | 0.0 | 0.00 | 0.00 | 0.00 | 89 | 1015.0 |
| 20260505121550 | 53 | 0 | 0.0 | 0.9 | 0.00 | 0.00 | 0.00 | 89 | 1014.9 |
| 20260505120104 | 53 | 0 | 0.0 | 0.9 | 0.00 | 0.00 | 0.00 | 89 | 1014.7 |
| 20260505114548 | 53 | 0 | 0.0 | 1.7 | 0.00 | 0.00 | 0.00 | 89 | 1014.6 |
| 20260505113106 | 53 | 0 | 0.0 | 1.7 | 0.00 | 0.00 | 0.00 | 89 | 1014.6 |
| 20260505111547 | 53 | 0 | 0.0 | 0.0 | 0.00 | 0.00 | 0.00 | 89 | 1014.6 |
| 20260505101547 | 53 | 0 | 0.0 | 1.7 | 0.00 | 0.00 | 0.00 | 90 | 1014.3 |
| 20260505100047 | 52 | 0 | 0.0 | 0.9 | 0.00 | 0.00 | 0.00 | 90 | 1014.3 |
| 20260505094550 | 52 | 202 | 0.0 | 0.9 | 0.00 | 0.00 | 0.00 | 90 | 1014.2 |
| 20260505093052 | 52 | 0 | 0.0 | 2.6 | 0.00 | 0.00 | 0.00 | 90 | 1014.2 |
| 20260505091545 | 51 | 0 | 0.0 | 1.7 | 0.00 | 0.00 | 0.00 | 90 | 1014.0 |
| 20260505090050 | 51 | 0 | 0.0 | 3.5 | 0.00 | 0.00 | 0.00 | 90 | 1013.9 |
| 20260505084553 | 51 | 0 | 0.0 | 0.0 | 0.00 | 0.00 | 0.00 | 90 | 1013.9 |
| 20260505083103 | 51 | 0 | 0.0 | 0.0 | 0.00 | 0.00 | 0.00 | 90 | 1013.9 |
| 20260505081552 | 51 | 0 | 0.0 | 0.0 | 0.00 | 0.00 | 0.00 | 90 | 1013.9 |
| 20260505080047 | 51 | 0 | 0.0 | 0.0 | 0.00 | 0.00 | 0.00 | 90 | 1013.9 |
| 20260505074551 | 50 | 0 | 0.0 | 0.0 | 0.00 | 0.00 | 0.00 | 89 | 1013.9 |
| 20260505073100 | 51 | 0 | 0.0 | 0.0 | 0.00 | 0.00 | 0.00 | 88 | 1013.6 |
| 20260505071547 | 51 | 0 | 0.0 | 0.0 | 0.00 | 0.00 | 0.00 | 88 | 1013.4 |
| 20260505070050 | 52 | 0 | 0.0 | 0.0 | 0.00 | 0.00 | 0.00 | 88 | 1013.2 |
| 20260505064554 | 53 | 0 | 0.0 | 0.9 | 0.00 | 0.00 | 0.00 | 87 | 1013.1 |
| 20260505063045 | 53 | 0 | 0.0 | 2.6 | 0.00 | 0.00 | 0.00 | 87 | 1013.0 |
| 20260505061552 | 53 | 233 | 0.0 | 1.7 | 0.00 | 0.00 | 0.00 | 87 | 1012.7 |
| 20260505060059 | 53 | 0 | 0.0 | 0.9 | 0.00 | 0.00 | 0.00 | 86 | 1012.9 |
| 20260505054552 | 54 | 0 | 0.0 | 2.6 | 0.00 | 0.00 | 0.00 | 86 | 1012.8 |
| 20260505053109 | 54 | 0 | 0.0 | 2.6 | 0.00 | 0.00 | 0.00 | 85 | 1012.8 |
| 20260505051547 | 55 | 0 | 0.0 | 3.5 | 0.00 | 0.00 | 0.00 | 85 | 1012.7 |
| 20260505050104 | 55 | 0 | 0.0 | 2.6 | 0.00 | 0.00 | 0.00 | 84 | 1012.5 |
| 20260505041548 | 56 | 360 | 1.7 | 5.2 | 0.00 | 0.00 | 0.00 | 83 | 1012.2 |
| 20260505040050 | 56 | 0 | 0.0 | 7.8 | 0.00 | 0.00 | 0.00 | 82 | 1012.0 |
| 20260505034611 | 57 | 182 | 0.9 | 7.8 | 0.00 | 0.00 | 0.00 | 81 | 1011.8 |
| 20260505033053 | 58 | 291 | 0.0 | 6.1 | 0.00 | 0.00 | 0.00 | 80 | 1011.7 |
| 20260505031548 | 59 | 0 | 1.7 | 6.1 | 0.00 | 0.00 | 0.00 | 79 | 1011.6 |
| 20260505030059 | 60 | 234 | 0.9 | 5.2 | 0.00 | 0.00 | 0.00 | 77 | 1011.5 |
| 20260505024549 | 61 | 198 | 0.9 | 8.7 | 0.00 | 0.00 | 0.00 | 75 | 1011.2 |
| 20260505023049 | 62 | 248 | 1.7 | 7.8 | 0.00 | 0.00 | 0.00 | 72 | 1011.1 |
| 20260505021551 | 64 | 226 | 1.7 | 11.3 | 0.00 | 0.00 | 0.00 | 70 | 1011.0 |
| 20260505020053 | 65 | 0 | 1.7 | 7.0 | 0.00 | 0.00 | 0.00 | 68 | 1010.9 |
| 20260505014549 | 66 | 226 | 1.7 | 9.6 | 0.00 | 0.00 | 0.00 | 66 | 1010.8 |
| 20260505013047 | 67 | 325 | 1.7 | 12.2 | 0.00 | 0.00 | 0.00 | 64 | 1010.7 |
| 20260505011605 | 69 | 188 | 1.7 | 7.8 | 0.00 | 0.00 | 0.00 | 63 | 1010.8 |
| 20260505010055 | 70 | 238 | 0.9 | 9.6 | 0.00 | 0.00 | 0.00 | 61 | 1010.8 |
| 20260505004545 | 70 | 65 | 1.7 | 11.3 | 0.00 | 0.00 | 0.00 | 60 | 1010.7 |
| 20260505003053 | 71 | 0 | 2.6 | 11.3 | 0.00 | 0.00 | 0.00 | 58 | 1010.6 |
| 20260505001603 | 73 | 350 | 1.7 | 7.0 | 0.00 | 0.00 | 0.00 | 57 | 1010.6 |
| 20260505000105 | 74 | 109 | 1.7 | 7.0 | 0.00 | 0.00 | 0.00 | 56 | 1010.6 |
| 20260504234557 | 75 | 0 | 2.6 | 10.4 | 0.00 | 0.00 | 0.00 | 54 | 1010.6 |
| 20260504233102 | 75 | 297 | 1.7 | 10.4 | 0.00 | 0.00 | 0.00 | 54 | 1010.7 |
| 20260504231549 | 76 | 5 | 2.6 | 8.7 | 0.00 | 0.00 | 0.00 | 54 | 1010.7 |
| 20260504230047 | 75 | 325 | 2.6 | 8.7 | 0.00 | 0.00 | 0.00 | 54 | 1010.8 |
| 20260504224548 | 75 | 323 | 1.7 | 7.8 | 0.00 | 0.00 | 0.00 | 56 | 1010.9 |
| 20260504223051 | 75 | 302 | 0.9 | 10.4 | 0.00 | 0.00 | 0.00 | 58 | 1011.1 |
| 20260504221548 | 75 | 337 | 2.6 | 9.6 | 0.00 | 0.00 | 0.00 | 55 | 1011.2 |
| 20260504220048 | 76 | 0 | 0.9 | 8.7 | 0.00 | 0.00 | 0.00 | 55 | 1011.2 |
| 20260504214547 | 75 | 332 | 2.6 | 8.7 | 0.00 | 0.00 | 0.00 | 55 | 1011.3 |
| 20260504213052 | 74 | 320 | 1.7 | 8.7 | 0.00 | 0.00 | 0.00 | 58 | 1011.4 |
| 20260504211551 | 74 | 67 | 1.7 | 11.3 | 0.00 | 0.00 | 0.00 | 57 | 1011.8 |
| 20260504210049 | 74 | 296 | 2.6 | 7.0 | 0.00 | 0.00 | 0.00 | 60 | 1011.5 |
| 20260504204547 | 72 | 327 | 2.6 | 7.0 | 0.00 | 0.00 | 0.00 | 61 | 1011.6 |
| 20260504203049 | 72 | 241 | 2.6 | 7.0 | 0.00 | 0.00 | 0.00 | 62 | 1011.8 |
| 20260504201551 | 72 | 226 | 1.7 | 5.2 | 0.00 | 0.00 | 0.00 | 63 | 1011.7 |
| 20260504200049 | 70 | 51 | 0.0 | 4.3 | 0.00 | 0.00 | 0.00 | 66 | 1011.7 |
| 20260504194555 | 70 | 80 | 1.7 | 5.2 | 0.00 | 0.00 | 0.00 | 66 | 1011.8 |
| 20260504193046 | 70 | 341 | 0.9 | 5.2 | 0.00 | 0.00 | 0.00 | 66 | 1011.8 |
| 20260504191602 | 68 | 301 | 1.7 | 6.1 | 0.00 | 0.00 | 0.00 | 67 | 1012.2 |
| 20260504190051 | 68 | 39 | 1.7 | 6.1 | 0.00 | 0.00 | 0.00 | 68 | 1012.2 |
| 20260504184549 | 69 | 323 | 0.9 | 3.5 | 0.00 | 0.00 | 0.00 | 67 | 1012.2 |
| 20260504183047 | 68 | 0 | 0.9 | 4.3 | 0.00 | 0.00 | 0.00 | 70 | 1012.2 |
| 20260504181551 | 67 | 46 | 0.9 | 7.0 | 0.00 | 0.00 | 0.00 | 71 | 1012.3 |
| 20260504180048 | 68 | 283 | 0.9 | 4.3 | 0.00 | 0.00 | 0.00 | 70 | 1012.3 |
| 20260504174551 | 66 | 337 | 0.9 | 4.3 | 0.00 | 0.00 | 0.00 | 72 | 1012.2 |
| 20260504173049 | 65 | 265 | 0.0 | 4.3 | 0.00 | 0.00 | 0.00 | 74 | 1012.4 |
| 20260504171552 | 65 | 0 | 0.9 | 7.0 | 0.00 | 0.00 | 0.00 | 73 | 1012.3 |